FENGYUN 1C DEB, 32352

Orbit data source: Space-Track

FENGYUN 1C DEB, 32352 is space debris in SSO originally from a launch on Mon, 10 May 1999 UTC launched from the Taiyaun Space Center, China (TSC). Fengyun 1C debris stems from the Chinese weather satellite Fengyun-1C, which was intentionally destroyed by a Chinese anti-satellite missile in 2007. This event dramatically increased the amount of space debris, with thousands of trackable fragments posing hazards to satellites and human spaceflight. The Fengyun 1C debris cloud has become a focal point in discussions about space sustainability and the need for international regulations to prevent the creation of new debris.

Loading next visibility...
Identifier
32352, 1999-025CYV
Orbit
SSO
Country
Flag of CNCN / PRC
Related business
Manufacturer
Unknown
Mission
Spacecraft
Bus & Motor
Unknown
Mass
Unknown
Launch date (UTC)
1999-05-10 (26 years ago)
Launch vehicle
Unknown
Launch site
Taiyaun Space Center, China (TSC)
Object type
Payload
Rocket body
Debris
Shape & HBR
Unknown shape, 0.1 m
Radar Cross Section
Small (<0.1 m²)

Expand to show TLE details & history
Last TLE update: 1 week ago

TLE from 1 week ago
0 FENGYUN 1C DEB
1 32352U 99025CYV 25301.53286105  .00001827  00000-0  53219-3 0  9992
2 32352  98.7722 220.3159 0121675 306.5400  52.4635 14.41285026646187
Epoch: 2025-10-28T12:47Z
TLE epoch observation values (Epoch: 2025-10-28T12:47:19.194Z)
Latitude
0.00002°
Longitude
-8.63307°
Altitude
704.985 km
Speed
7.531 km/s
True Right ascension
14h 41m 15s
True Declination
0° 00' 00"
Sunlit
Object was in daylight at epoch
Visualization orbit readout
Latitude
Unknown
Longitude
Unknown
Altitude
Unknown
Speed
Unknown
Apparent Right ascension
Unknown
Apparent Declination
Unknown
Sunlit
N/A
Visualization observer readout
Local Sidereal Time
08:15:34
Azimuth
Unknown
Elevation
Unknown
Doppler factor
Unknown
Orbital elements
Apogee altitude
838.137 km
Perigee altitude
664.64 km
Semi-major axis
7,129.525 km
Eccentricity
0.01217
Inclination
98.7722°
RAAN
220.3159°
Arg. of periapsis
306.54°
True anomaly
53.57939°
Mean anomaly
52.4635°
Eccentric anomaly
53.02042°
Mean motion
3.60539 °/min
Orbital period
99.85 mins
BSTAR
0.00053219
Loading maneuver chart data...
Computing Atmospheric mass density...

Documentation

Showing up to 5 results
|